Content
SEND FEEDBACK

Daily
Averages
Monthly
Summary
United States of America

TAMUNING, GUAM


Home > North America > United States > Guam
Elevation: 250 feet     Latitude: 13 29N     Longitude: 144 47E

WEATHER
 
SELECT A DAY
Number of Records: 341,964;   Date Range: 1/1/95 - 7/26/14
 
SHARE

PRINT THIS DATA

[ ← Previous Day ]
WEATHER ALMANAC - MARCH 5, 2013
[ Next Day → ]
[ °C ]   °F
Weather ElementAverageHighLow
Temperature79.8 °F86 °F (12:53 pm)76.5 °F (11:55 pm)
Dewpoint75.1 °F77 °F (12:57 am)72.5 °F (11:55 pm)
Humidity85.8 %94 % (12:57 am)70 % (12:53 pm)
Barometer29.87 in29.92 in (8:55 pm)29.83 in (3:55 am)
Wind Speed12.6 mph18.4 mph (5:20 pm)
Wind Gust24.2 mph (12:13 pm)
Weather ElementAverage
Visibility10 mi
Wind DirectionENE (70.9 °)

Weather ElementTotal
Precipitation---
Cooling Degree Days16.3 (Base 65)
Growing Degree Days31.3 (Base 50)
Averaged from 127 records on March 5, 2013
WEATHER CONDITIONS BREAKOUT
WIND DIRECTION BREAKOUT
WEATHER BY HOUR - MARCH 5, 2013
[ °C ]   °F
Local TimeTemperatureDewpointHumidityBarometerVisibilityWind DirectionWind SpeedGust SpeedPrecipitationEventsConditions
12:55 AM78.4 °F76.3 °F93 %29.87 in10.0 miENE (70°)9.2 mphMostly Cloudy
12:57 AM78.8 °F77.0 °F94 %29.87 in10.0 miENE (70°)11.5 mphMostly Cloudy
1:03 AM78.8 °F77.0 °F94 %29.87 in10.0 miEast (80°)11.5 mphMostly Cloudy
1:08 AM78.8 °F75.2 °F89 %29.87 in10.0 miEast (80°)10.4 mphOvercast
1:09 AM78.8 °F75.2 °F89 %29.86 in10.0 miENE (70°)10.4 mphOvercast
1:11 AM78.8 °F75.2 °F89 %29.86 in10.0 miENE (70°)11.5 mphOvercast
1:13 AM78.8 °F77.0 °F94 %29.86 in10.0 miENE (70°)10.4 mphOvercast
1:14 AM78.8 °F77.0 °F94 %29.87 in10.0 miENE (70°)10.4 mphOvercast
1:22 AM78.8 °F77.0 °F94 %29.86 in10.0 miEast (80°)11.5 mphOvercast
1:27 AM78.8 °F75.2 °F89 %29.86 in10.0 miENE (70°)11.5 mphOvercast
1:30 AM78.8 °F75.2 °F89 %29.86 in10.0 miENE (70°)11.5 mphOvercast
1:31 AM78.8 °F75.2 °F89 %29.86 in10.0 miEast (80°)11.5 mphOvercast
1:36 AM78.8 °F75.2 °F89 %29.86 in10.0 miENE (70°)11.5 mphOvercast
1:38 AM78.8 °F75.2 °F89 %29.86 in10.0 miENE (70°)11.5 mphOvercast
1:44 AM78.8 °F75.2 °F89 %29.86 in10.0 miENE (70°)10.4 mphMostly Cloudy
1:55 AM78.1 °F75.6 °F92 %29.86 in10.0 miENE (70°)11.5 mphOvercast
1:59 AM78.8 °F75.2 °F89 %29.86 in10.0 miENE (70°)11.5 mphMostly Cloudy
2:38 AM77.0 °F75.2 °F94 %29.85 in10.0 miENE (60°)9.2 mphMostly Cloudy
2:52 AM78.8 °F75.2 °F89 %29.85 in10.0 miENE (60°)13.8 mphMostly Cloudy
2:55 AM78.1 °F75.7 °F92 %29.85 in10.0 miENE (60°)13.8 mphOvercast
3:24 AM77.0 °F75.2 °F94 %29.84 in10.0 miENE (70°)10.4 mphScattered Clouds
3:25 AM77.0 °F75.2 °F94 %29.84 in10.0 miENE (70°)10.4 mphMostly Cloudy
3:27 AM77.0 °F75.2 °F94 %29.84 in10.0 miENE (70°)9.2 mphScattered Clouds
3:39 AM77.0 °F75.2 °F94 %29.84 in10.0 miENE (60°)10.4 mphMostly Cloudy
3:46 AM77.0 °F75.2 °F94 %29.84 in10.0 miENE (60°)10.4 mphScattered Clouds
3:55 AM77.5 °F75.2 °F92 %29.83 in10.0 miENE (70°)10.4 mphScattered Clouds
4:07 AM77.0 °F75.2 °F94 %29.83 in10.0 miENE (60°)10.4 mphMostly Cloudy
4:10 AM77.0 °F75.2 °F94 %29.83 in10.0 miENE (60°)10.4 mphMostly Cloudy
4:21 AM77.0 °F75.2 °F94 %29.83 in10.0 miENE (60°)13.8 mphMostly Cloudy
4:29 AM77.0 °F75.2 °F94 %29.83 in10.0 miENE (60°)11.5 mphMostly Cloudy
4:41 AM78.8 °F75.2 °F89 %29.83 in10.0 miENE (60°)9.2 mphLight Drizzle
4:50 AM78.8 °F75.2 °F89 %29.83 in10.0 miENE (60°)10.4 mphOvercast
4:55 AM78.1 °F76.3 °F94 %29.83 in10.0 miEast (80°)11.5 mph0.00 inOvercast
5:02 AM78.8 °F75.2 °F89 %29.83 in10.0 miENE (60°)13.8 mphMostly Cloudy
5:14 AM78.8 °F75.2 °F89 %29.83 in10.0 miENE (60°)13.8 mphOvercast
5:19 AM78.8 °F75.2 °F89 %29.83 in10.0 miNE (50°)11.5 mphOvercast
5:22 AM78.8 °F75.2 °F89 %29.83 in10.0 miNE (50°)10.4 mphOvercast
5:25 AM78.8 °F75.2 °F89 %29.83 in10.0 miNE (50°)11.5 mphMostly Cloudy
5:35 AM77.0 °F75.2 °F94 %29.83 in10.0 miENE (60°)11.5 mphMostly Cloudy
5:36 AM77.0 °F75.2 °F94 %29.84 in10.0 miENE (60°)11.5 mphMostly Cloudy
5:38 AM77.0 °F75.2 °F94 %29.84 in10.0 miENE (60°)12.7 mphMostly Cloudy
5:43 AM77.0 °F75.2 °F94 %29.84 in10.0 miENE (60°)12.7 mphMostly Cloudy
5:48 AM77.0 °F75.2 °F94 %29.84 in10.0 miENE (60°)10.4 mphMostly Cloudy
5:50 AM78.8 °F75.2 °F89 %29.84 in10.0 miENE (60°)12.7 mphMostly Cloudy
5:55 AM77.9 °F75.2 °F91 %29.84 in10.0 miENE (60°)12.7 mphMostly Cloudy
5:56 AM77.0 °F75.2 °F94 %29.84 in10.0 miENE (60°)13.8 mphMostly Cloudy
5:58 AM77.0 °F75.2 °F94 %29.84 in10.0 miENE (60°)12.7 mphMostly Cloudy
6:03 AM77.0 °F75.2 °F94 %29.84 in10.0 miENE (60°)11.5 mphMostly Cloudy
6:18 AM77.0 °F75.2 °F94 %29.85 in10.0 miENE (70°)11.5 mphMostly Cloudy
6:21 AM77.0 °F75.2 °F94 %29.85 in10.0 miENE (70°)12.7 mphMostly Cloudy
6:24 AM77.0 °F75.2 °F94 %29.85 in10.0 miENE (70°)11.5 mphMostly Cloudy
6:44 AM77.0 °F75.2 °F94 %29.86 in10.0 miENE (60°)12.7 mphMostly Cloudy
6:55 AM78.3 °F75.0 °F90 %29.86 in10.0 miNE (50°)13.8 mphMostly Cloudy
7:08 AM78.8 °F75.2 °F89 %29.86 in10.0 miENE (60°)12.7 mphMostly Cloudy
7:13 AM78.8 °F75.2 °F89 %29.86 in10.0 miENE (60°)13.8 mphMostly Cloudy
7:15 AM78.8 °F75.2 °F89 %29.86 in10.0 miENE (60°)15.0 mphMostly Cloudy
7:20 AM78.8 °F75.2 °F89 %29.87 in10.0 miENE (60°)13.8 mphScattered Clouds
7:21 AM78.8 °F75.2 °F89 %29.87 in10.0 miENE (60°)13.8 mphMostly Cloudy
7:39 AM78.8 °F75.2 °F89 %29.87 in10.0 miENE (60°)13.8 mphMostly Cloudy
7:44 AM78.8 °F75.2 °F89 %29.88 in10.0 miENE (70°)12.7 mphMostly Cloudy
7:50 AM78.8 °F75.2 °F89 %29.88 in10.0 miEast (80°)16.1 mphMostly Cloudy
7:51 AM78.8 °F75.2 °F89 %29.88 in10.0 miENE (70°)15.0 mphScattered Clouds
7:55 AM79.7 °F75.0 °F86 %29.88 in10.0 miENE (70°)13.8 mphScattered Clouds
8:00 AM80.6 °F75.2 °F84 %29.88 in10.0 miEast (80°)13.8 mphMostly Cloudy
8:04 AM80.6 °F75.2 °F84 %29.88 in10.0 miENE (60°)12.7 mphMostly Cloudy
8:08 AM80.6 °F75.2 °F84 %29.88 in10.0 miEast (80°)13.8 mphMostly Cloudy
8:09 AM80.6 °F75.2 °F84 %29.88 in10.0 miEast (80°)15.0 mphMostly Cloudy
8:14 AM80.6 °F75.2 °F84 %29.88 in10.0 miEast (80°)13.8 mphMostly Cloudy
8:16 AM80.6 °F75.2 °F84 %29.88 in10.0 miEast (80°)15.0 mphMostly Cloudy
8:20 AM80.6 °F75.2 °F84 %29.88 in10.0 miENE (70°)15.0 mphMostly Cloudy
8:24 AM80.6 °F75.2 °F84 %29.89 in10.0 miEast (80°)16.1 mphScattered Clouds
8:55 AM81.7 °F75.0 °F80 %29.89 in10.0 miENE (70°)13.8 mphClear
9:31 AM82.4 °F75.2 °F79 %29.90 in10.0 miENE (60°)12.7 mphMostly Cloudy
9:33 AM82.4 °F75.2 °F79 %29.91 in10.0 miENE (60°)15.0 mphScattered Clouds
9:39 AM82.4 °F75.2 °F79 %29.90 in10.0 miENE (60°)13.8 mphMostly Cloudy
9:55 AM83.3 °F76.1 °F79 %29.91 in10.0 miEast (80°)15.0 mphMostly Cloudy
9:56 AM82.4 °F75.2 °F79 %29.91 in10.0 miEast (80°)15.0 mphMostly Cloudy
10:02 AM82.4 °F75.2 °F79 %29.91 in10.0 miENE (70°)12.7 mphMostly Cloudy
10:17 AM84.2 °F77.0 °F79 %29.91 in10.0 miEast (80°)15.0 mphMostly Cloudy
10:18 AM84.2 °F77.0 °F79 %29.91 in10.0 miENE (70°)16.1 mphMostly Cloudy
10:19 AM84.2 °F77.0 °F79 %29.91 in10.0 miENE (70°)16.1 mphMostly Cloudy
10:28 AM84.2 °F77.0 °F79 %29.91 in10.0 miENE (70°)12.7 mphScattered Clouds
10:30 AM84.2 °F77.0 °F79 %29.91 in10.0 miENE (70°)16.1 mphMostly Cloudy
10:34 AM84.2 °F77.0 °F79 %29.91 in10.0 miEast (80°)12.7 mphScattered Clouds
10:35 AM84.2 °F77.0 °F79 %29.91 in10.0 miEast (90°)12.7 mphMostly Cloudy
10:37 AM84.2 °F77.0 °F79 %29.91 in10.0 miEast (80°)13.8 mphScattered Clouds
10:55 AM84.7 °F75.9 °F75 %29.90 in10.0 miEast (80°)15.0 mphScattered Clouds
11:27 AM84.2 °F77.0 °F79 %29.89 in10.0 miNE (50°)16.1 mphMostly Cloudy
11:55 AM84.6 °F76.5 °F77 %29.88 in10.0 miENE (60°)12.7 mphMostly Cloudy
12:13 PM82.4 °F73.4 °F74 %29.88 in10.0 miEast (90°)15.0 mph24.2 mphRainLight Rain
12:18 PM80.6 °F75.2 °F84 %29.88 in9.0 miEast (80°)15.0 mph24.2 mphRainLight Rain
12:24 PM82.4 °F75.2 °F79 %29.88 in10.0 miEast (90°)13.8 mphRainLight Rain
12:25 PM82.4 °F75.2 °F79 %29.88 in10.0 miEast (90°)16.1 mphScattered Clouds
12:47 PM84.2 °F75.2 °F74 %29.87 in10.0 miEast (90°)17.3 mph21.9 mphMostly Cloudy
12:52 PM84.2 °F75.2 °F74 %29.87 in10.0 miEast (90°)16.1 mphScattered Clouds
12:53 PM86.0 °F75.2 °F70 %29.87 in10.0 miEast (90°)17.3 mphMostly Cloudy
12:55 PM85.5 °F75.4 °F72 %29.87 in10.0 miEast (90°)17.3 mph0.00 inScattered Clouds
1:55 PM84.4 °F75.6 °F75 %29.85 in10.0 miEast (90°)15.0 mph19.6 mphMostly Cloudy
1:56 PM84.2 °F75.2 °F74 %29.86 in10.0 miEast (90°)16.1 mph19.6 mphMostly Cloudy
2:31 PM86.0 °F75.2 °F70 %29.84 in10.0 miEast (100°)12.7 mphMostly Cloudy
2:36 PM84.2 °F73.4 °F70 %29.84 in10.0 miEast (100°)12.7 mphScattered Clouds
2:55 PM84.4 °F74.3 °F72 %29.85 in10.0 miEast (90°)13.8 mphPartly Cloudy
3:32 PM84.2 °F73.4 °F70 %29.85 in10.0 miEast (90°)13.8 mphMostly Cloudy
3:55 PM83.1 °F73.8 °F73 %29.84 in10.0 miENE (70°)11.5 mphMostly Cloudy
4:17 PM82.4 °F73.4 °F74 %29.85 in10.0 miEast (80°)11.5 mphMostly Cloudy
4:26 PM82.4 °F73.4 °F74 %29.85 in10.0 miENE (70°)12.7 mphMostly Cloudy
4:31 PM82.4 °F73.4 °F74 %29.85 in10.0 miENE (70°)12.7 mphMostly Cloudy
4:55 PM81.3 °F74.1 °F79 %29.86 in10.0 miEast (80°)9.2 mphMostly Cloudy
5:08 PM80.6 °F73.4 °F79 %29.86 in10.0 miENE (70°)11.5 mphMostly Cloudy
5:20 PM80.6 °F73.4 °F79 %29.87 in8.0 miEast (90°)18.4 mphRainLight Rain
5:34 PM78.8 °F73.4 °F83 %29.87 in10.0 miEast (90°)9.2 mphMostly Cloudy
5:38 PM78.8 °F73.4 °F83 %29.87 in10.0 miEast (90°)9.2 mphMostly Cloudy
5:55 PM78.6 °F73.9 °F85 %29.87 in10.0 miEast (90°)10.4 mph0.00 inMostly Cloudy
6:55 PM78.6 °F73.4 °F84 %29.89 in10.0 miEast (80°)10.4 mphOvercast
7:55 PM78.4 °F73.0 °F83 %29.90 in10.0 miEast (80°)11.5 mphMostly Cloudy
8:55 PM77.7 °F73.8 °F88 %29.92 in10.0 miEast (80°)11.5 mphPartly Cloudy
9:46 PM77.0 °F73.4 °F89 %29.92 in10.0 miENE (60°)10.4 mphMostly Cloudy
9:47 PM77.0 °F73.4 °F89 %29.92 in10.0 miENE (60°)10.4 mphScattered Clouds
9:55 PM77.5 °F73.8 °F88 %29.92 in10.0 miENE (60°)10.4 mphScattered Clouds
10:21 PM77.0 °F73.4 °F89 %29.92 in10.0 miENE (60°)11.5 mphMostly Cloudy
10:44 PM77.0 °F73.4 °F89 %29.92 in10.0 miENE (60°)10.4 mphMostly Cloudy
10:50 PM77.0 °F73.4 °F89 %29.92 in10.0 miENE (60°)10.4 mphMostly Cloudy
10:55 PM77.7 °F73.2 °F86 %29.92 in10.0 miENE (60°)10.4 mphMostly Cloudy
11:04 PM77.0 °F73.4 °F89 %29.92 in10.0 miEast (80°)11.5 mphMostly Cloudy
11:12 PM77.0 °F73.4 °F89 %29.92 in10.0 miENE (70°)12.7 mphMostly Cloudy
11:15 PM77.0 °F73.4 °F89 %29.92 in10.0 miENE (70°)9.2 mphScattered Clouds
11:55 PM76.5 °F72.5 °F87 %29.91 in10.0 miENE (70°)10.4 mphClear
Hourly data recorded from PGUA, located miles away from Tamuning, Guam







STORIES FROM OUR PARTNERS